Location: Unspecified
(0.0000°N, 0.0000°E)
Time: 12:51:20
(UTC+00:00)

A-11 Canister half - Visible Passes

Search period start: 27 August 2014 00:00
Search period end: 06 September 2014 00:00
Orbit: 1526 x 1684 km, 47.3° (Epoch: 24 August)

Date Brightness Start Highest point End Pass type
(mag) Time Alt. Az. Time Alt. Az. Time Alt. Az.
30 Aug 11.0 21:11:51 10° SSW 21:12:15 12° SSW 21:12:15 12° SSW visible
31 Aug 10.6 20:50:26 10° SSW 20:52:33 19° SSW 20:52:33 19° SSW visible
01 Sep 10.1 20:29:01 10° SSW 20:32:58 27° S 20:32:58 27° S visible
02 Sep 9.6 20:07:38 10° SSW 20:13:30 37° S 20:13:30 37° S visible
03 Sep 9.3 19:46:15 10° SSW 19:54:10 42° SE 19:54:10 42° SE visible
03 Sep 11.0 21:51:11 10° WSW 21:52:34 15° WSW 21:52:34 15° WSW visible
04 Sep 9.3 19:24:53 10° SSW 19:33:23 40° SE 19:34:58 37° ESE visible
04 Sep 10.5 21:29:32 10° WSW 21:33:23 26° WSW 21:33:23 26° WSW visible
05 Sep 9.4 19:03:31 10° SSW 19:11:52 37° SE 19:15:55 26° E visible
05 Sep 9.9 21:07:54 10° WSW 21:14:20 39° W 21:14:20 39° W visible
